JAGSAT (53771 NORAD) Tracking and Keplerian Element Data

This shows tracking and keplerian element data for the satellite.

Feedback or suggestion? Click here.




ElementValue
Catalog53771
NameJAGSAT
Epoch Orbit1181
Epoch Day325.15742367
Epoch Year2022
RAAN274.9941
Inclination51.6367
Eccentricity0.0009464
Argument of Perigee121.4051
Mean Anonmoly238.7871
Mean Motion15.65191809
Decay Rate0.00117639
L11 53771U 98067UJ 22325.15742367 .00117639 00000+0 11517-2 0 9995
L22 53771 51.6367 274.9941 0009464 121.4051 238.7871 15.65191809 11818



Live tracking and technical data element details for JAGSAT (NORAD 53771). JAGSAT can be tracked NOW for your location showing map with azimuth and elevation plus other details from your city location.







IsCatalogInMostPopularTable: catalog: 53771, numindb: 8
Update: records affected: 1



GetName: 53771 JAGSAT

Hit Count: updated at: Thu, 08 Dec 2022 09:13:16 GMT